マクノート彗星

P/2005 K3 ( McNaught )

English version
Home page
Updated on June 7, 2011

---------------------------------------------------------------------

・ プロフィール

発見日 2005年5月20日
発見光度 17.3等
発見者 R. H. McNaught (Siding Spring)

・ 写真集

・ 軌道要素

Epoch 2005 Aug. 18.0 TT = JDT 2453600.5
T 2005 Aug. 11.40994 TT                                 MPC
q   1.5091414            (2000.0)            P               Q
n   0.13881311     Peri.   15.59116     +0.98983583     -0.13713123
a   3.6941602      Node   352.00112     +0.08314377     +0.77298227
e   0.5914792      Incl.   15.71222     +0.11537825     +0.61942993
P   7.10
From 500 observations 2005 May 20-2006 Feb. 2, mean residual 0".5.

・ 星図

・ 光度変化

        m1 = 12.0 + 5 logΔ + 14.0 log r

---------------------------------------------------------------------

軌道要素はM.P.E.C. 2011-K13に掲載されたものです。
星図は StellaNavigator Ver.2.0 for Windows (アストロアーツ 編著 / アスキー出版局刊) で作成したものです。
光度グラフはComet for Windowsで作成したものです。

---------------------------------------------------------------------

Copyright(C) Seiichi Yoshida (comet@aerith.net). All rights reserved.